Weather History for Cleveland Burke, OH

Change the Weather History Date:

Wednesday, December 30, 1998

  Actual Average Record
Temperature  
Mean Temperature 18 °F -  
Max Temperature 19 °F 35 °F 52 °F (2004)
Min Temperature 17 °F 24 °F 12 °F (2001)
Degree Days  
Heating Degree Days 47    
Moisture  
Dew Point 11 °F    
Average Humidity 72    
Maximum Humidity 81    
Minimum Humidity 63    
Precipitation  
Precipitation 0.00 in - - ()
Sea Level Pressure  
Sea Level Pressure 30.04 in    
Wind  
Wind Speed 23 mph (WNW)    
Max Wind Speed 30 mph    
Max Gust Speed 39 mph    
Visibility 8 miles    
Events Snow    
Averages and records for this station are not official NWS values.
T = Trace of Precipitation, MM = Missing Value Source: NWS Daily Summary

Daily Weather History Graph

Daily Weather History Graph

Search for Another Location

Airport:

Trip Planner

Search our weather history database for the weather conditions in past years. The results will help you decide how hot, cold, wet, or windy it might be!

Date:

Astronomy

Dec. 30, 1998 Rise Set
Actual Time 7:53 AM EST 5:05 PM EST
Civil Twilight 7:21 AM EST 5:37 PM EST
Nautical Twilight 6:46 AM EST 6:11 PM EST
Astronomical Twilight 6:13 AM EST 6:45 PM EST
Moon 3:17 PM EST (12/30) 4:50 AM EST (12/30)
Length of Visible Light 10h 15m
Length of Day
9h 12m
Waxing Gibbous, 92% of the Moon is Illuminated
Dec 30
Waxing Gibbous
Jan 1
Full
Jan 9
Last Quarter
Jan 17
New
Jan 24
First Quarter

Hourly Weather History & Observations

Time (EST) Temp. Windchill Dew Point Humidity Pressure Visibility Wind Dir Wind Speed Gust Speed Precip Events Conditions
12:53 AM 19.9 °F 1.3 °F 15.1 °F 81% 29.82 in 9.0 mi NW 29.9 mph 36.8 mph N/A Snow Light Snow
1:53 AM 19.9 °F 1.5 °F 14.0 °F 78% 29.84 in 8.0 mi NW 28.8 mph 39.1 mph N/A Snow Light Snow
2:53 AM 19.0 °F 0.6 °F 14.0 °F 81% 29.88 in 9.0 mi NNW 27.6 mph 32.2 mph N/A Snow Light Snow
3:53 AM 19.0 °F 0.6 °F 12.9 °F 77% 29.91 in 9.0 mi NNW 27.6 mph 33.4 mph N/A Snow Light Snow
4:53 AM 19.0 °F 2.0 °F 12.9 °F 77% 29.93 in 9.0 mi NW 23.0 mph 33.4 mph N/A Snow Light Snow
5:44 AM 19.4 °F 2.1 °F 12.2 °F 74% 29.92 in 10.0 mi NNW 24.2 mph 28.8 mph N/A Snow Light Snow
5:53 AM 19.0 °F 1.3 °F 12.9 °F 77% 29.96 in 10.0 mi NNW 25.3 mph 31.1 mph N/A Snow Light Snow
6:05 AM 19.4 °F 2.1 °F 12.2 °F 74% 29.94 in 10.0 mi NW 24.2 mph 31.1 mph N/A Snow Light Snow
6:35 AM 19.4 °F 1.8 °F 10.4 °F 68% 29.95 in 10.0 mi NNW 25.3 mph 32.2 mph N/A Snow Light Snow
6:53 AM 19.0 °F 2.0 °F 12.0 °F 74% 29.98 in 9.0 mi NW 23.0 mph 29.9 mph N/A Snow Light Snow
7:09 AM 19.4 °F 2.1 °F 12.2 °F 74% 29.96 in 10.0 mi NNW 24.2 mph 33.4 mph N/A Snow Light Snow
7:25 AM 19.4 °F 1.1 °F 10.4 °F 68% 29.98 in 10.0 mi NW 27.6 mph 33.4 mph N/A   Overcast
7:53 AM 19.0 °F 1.6 °F 12.0 °F 74% 30.01 in 10.0 mi NW 24.2 mph 38.0 mph N/A   Overcast
8:53 AM 19.0 °F 2.4 °F 12.0 °F 74% 30.03 in 10.0 mi NW 21.9 mph 31.1 mph N/A   Overcast
9:53 AM 18.0 °F 3.6 °F 9.0 °F 68% 30.06 in 10.0 mi NNW 15.0 mph 26.5 mph N/A   Overcast
10:07 AM 19.4 °F 4.5 °F 8.6 °F 63% 30.04 in 10.0 mi NW 17.3 mph 24.2 mph N/A   Overcast
10:40 AM 19.4 °F 3.2 °F 10.4 °F 68% 30.06 in 10.0 mi NW 20.7 mph - N/A   Overcast
10:53 AM 19.0 °F 3.6 °F 10.9 °F 71% 30.09 in 10.0 mi West 18.4 mph - N/A   Overcast
11:33 AM 17.6 °F 1.7 °F 10.4 °F 73% 30.06 in 9.0 mi WNW 18.4 mph - N/A Snow Light Snow
11:43 AM 17.6 °F 2.7 °F 8.6 °F 68% 30.06 in 8.0 mi WNW 16.1 mph - N/A Snow Light Snow
11:53 AM 18.0 °F 2.6 °F 9.0 °F 68% 30.09 in 8.0 mi WNW 17.3 mph - N/A Snow Light Snow
12:53 PM 18.0 °F 1.7 °F 10.0 °F 71% 30.08 in 7.0 mi West 19.6 mph - N/A Snow Light Snow
1:53 PM 19.0 °F 3.2 °F 10.0 °F 68% 30.09 in 6.0 mi West 19.6 mph 26.5 mph 0.00 in Snow Light Snow
2:09 PM 19.4 °F 4.1 °F 8.6 °F 63% 30.06 in 8.0 mi WNW 18.4 mph 26.5 mph 0.00 in Snow Light Snow
2:23 PM 19.4 °F 2.8 °F 12.2 °F 74% 30.06 in 9.0 mi West 21.9 mph 25.3 mph 0.00 in Snow Light Snow
2:34 PM 19.4 °F 4.1 °F 10.4 °F 68% 30.07 in 9.0 mi West 18.4 mph 25.3 mph 0.00 in Snow Light Snow
2:53 PM 19.0 °F 2.7 °F 10.0 °F 68% 30.10 in 9.0 mi West 20.7 mph 25.3 mph 0.00 in Snow Light Snow
3:31 PM 17.6 °F 3.2 °F 12.2 °F 79% 30.09 in 4.0 mi SW 15.0 mph - 0.00 in Snow Light Snow
3:36 PM 17.6 °F 0.9 °F 12.2 °F 79% 30.10 in 2.5 mi SW 20.7 mph - 0.00 in Snow Light Snow
3:53 PM 17.1 °F 1.5 °F 12.0 °F 81% 30.13 in 2.0 mi SW 17.3 mph - 0.00 in Snow Light Snow
4:25 PM 17.6 °F 2.7 °F 10.4 °F 73% 30.11 in 4.0 mi SW 16.1 mph - 0.00 in Snow Light Snow
4:37 PM 17.6 °F 2.2 °F 10.4 °F 73% 30.11 in 6.0 mi SW 17.3 mph - 0.00 in Snow Light Snow
4:53 PM 17.1 °F 1.0 °F 9.0 °F 71% 30.15 in 9.0 mi SW 18.4 mph - 0.00 in Snow Light Snow
5:53 PM 18.0 °F 2.2 °F 8.1 °F 65% 30.14 in 9.0 mi SW 18.4 mph - 0.00 in Snow Light Snow
6:53 PM 18.0 °F 3.6 °F 8.1 °F 65% 30.14 in 9.0 mi SW 15.0 mph - 0.00 in Snow Light Snow
7:53 PM 18.0 °F 2.6 °F 9.0 °F 68% 30.13 in 9.0 mi SSW 17.3 mph - 0.00 in Snow Light Snow
8:53 PM 18.0 °F 2.6 °F 10.0 °F 71% 30.14 in 9.0 mi SSW 17.3 mph - 0.00 in Snow Light Snow
9:53 PM 18.0 °F 3.6 °F 9.0 °F 68% 30.14 in 9.0 mi SW 15.0 mph - 0.00 in Snow Light Snow
10:53 PM 18.0 °F 3.6 °F 9.0 °F 68% 30.15 in 10.0 mi SW 15.0 mph - 0.00 in   Overcast
11:53 PM 18.0 °F 3.1 °F 9.0 °F 68% 30.15 in 10.0 mi SW 16.1 mph - N/A   Overcast